Location: Hains Lake
(37.8540°N, 99.8578°W)
Time: 10:26:42
(UTC+00:00)

Tiros 1 despin weight - Pass Details

Date: 26 April 2021
Orbit: 593 x 642 km, 48.2° (Epoch: 07 May)

Event Time Altitude Azimuth Distance (km) Brightness Sun altitude
Rises 08:23:32 0° 217° (SW) 2,927 - -32.8°
Reaches altitude 10° 08:25:56 10° 211° (SSW) 2,019 - -32.5°
Maximum altitude 08:30:22 45° 139° (SE) 870 - -32.1°
Exits shadow 08:32:53 23° 79° (ENE) 1,355 ? -31.8°
Drops below altitude 10° 08:34:46 10° 67° (ENE) 2,008 ? -31.6°
Sets 08:37:09 0° 61° (ENE) 2,911 ? -31.3°
